Location: ??? ????
(38.0580°N, 23.1536°E)
Time: 22:18:10
(UTC+00:00)

Cosmos 1655 Rocket - Pass Details

Date: 13 December 2025
Orbit: 969 x 1006 km, 83.0° (Epoch: 14 January)

Event Time Altitude Azimuth Distance (km) Brightness Sun altitude
Rises 16:20:26 0° 353° (N) 3,675 6.9 -13.8°
Reaches altitude 10° 16:22:57 10° 353° (N) 2,722 6.2 -14.3°
Maximum altitude 16:29:12 90° 258° (WSW) 975 4.0 -15.4°
Drops below altitude 10° 16:35:24 10° 175° (S) 2,703 6.5 -16.6°
Sets 16:37:53 0° 176° (S) 3,648 7.2 -17.1°
